Salina, KS

3:02 AM CST on January 23, 2018 (GMT -0600)
Salina Municipal

Weather History for KSLN - January, 2014

Change the Weather History Date:

Wednesday, January 1, 2014

  Actual Average Record
Temperature  
Mean Temperature 20 °F 31 °F  
Max Temperature 32 °F 41 °F 71 °F (1939)
Min Temperature 8 °F 21 °F -12 °F (1924)
Degree Days  
Heating Degree Days 45 34  
Month to date heating degree days 45 34  
Since 1 July heating degree days 2185 1998  
Cooling Degree Days 0 0  
Month to date cooling degree days 0 0  
Year to date cooling degree days 0 0  
Moisture  
Dew Point 11 °F    
Average Humidity 78    
Maximum Humidity 88    
Minimum Humidity 67    
Precipitation  
Precipitation 0.00 in 0.02 in 1.06 in (1965)
Month to date precipitation 0.02  
Year to date precipitation 0.02  
Sea Level Pressure  
Sea Level Pressure 30.23 in    
Wind  
Wind Speed 16 mph (North)    
Max Wind Speed 30 mph    
Max Gust Speed 35 mph    
Visibility 6 miles    
Events Fog , Snow    
T = Trace of Precipitation, MM = Missing Value Source: NWS Daily Summary

Daily Weather History Graph

Daily Weather History Graph

Search for Another Location

Airport or City:

Trip Planner

Search our weather history database for the weather conditions in past years. The results will help you decide how hot, cold, wet, or windy it might be!

Date:

Astronomy

Jan. 01, 2014 Rise Set
Actual Time 7:48 AM CST 5:19 PM CST
Civil Twilight 7:19 AM CST 5:49 PM CST
Nautical Twilight 6:45 AM CST 6:22 PM CST
Astronomical Twilight 6:13 AM CST 6:55 PM CST
Moon 7:41 AM CST (1/1) 6:05 PM CST (1/1)
Length of Visible Light 10h 30m
Length of Day
9h 30m
New Moon, 0% of the Moon is Illuminated
Jan 1
New Moon
Jan 7
First Quarter
Jan 15
Full
Jan 23
Last Quarter
Jan 30
New

Hourly Weather History & Observations

Time (CST) Temp. Windchill Dew Point Humidity Pressure Visibility Wind Dir Wind Speed Gust Speed Precip Events Conditions
12:53 AM 27.0 °F 18.7 °F 21.9 °F 81% 30.04 in 10.0 mi NNW 8.1 mph - N/A   Clear
1:53 AM 27.0 °F 20.5 °F 21.0 °F 78% 30.03 in 10.0 mi North 5.8 mph - N/A   Clear
2:53 AM 26.1 °F 19.4 °F 21.0 °F 81% 30.02 in 10.0 mi East 5.8 mph - N/A   Clear
3:53 AM 23.0 °F 15.8 °F 19.0 °F 85% 30.02 in 10.0 mi North 5.8 mph - N/A   Clear
4:53 AM 21.0 °F 9.3 °F 17.1 °F 85% 30.04 in 8.0 mi North 11.5 mph - N/A   Clear
5:53 AM 21.0 °F 9.3 °F 16.0 °F 81% 30.04 in 9.0 mi North 11.5 mph - N/A   Clear
6:53 AM 19.9 °F 7.9 °F 15.1 °F 81% 30.06 in 9.0 mi NNE 11.5 mph - N/A   Clear
7:22 AM 19.0 °F 4.0 °F 14.0 °F 81% 30.04 in 9.0 mi North 17.3 mph - N/A   Mostly Cloudy
7:53 AM 19.0 °F 5.0 °F 12.9 °F 77% 30.10 in 7.0 mi NNE 15.0 mph - N/A   Overcast
8:53 AM 18.0 °F 2.6 °F 12.0 °F 78% 30.14 in 7.0 mi NNE 17.3 mph - N/A   Overcast
9:53 AM 18.0 °F 3.1 °F 12.0 °F 78% 30.16 in 8.0 mi NNE 16.1 mph - N/A   Overcast
10:53 AM 19.0 °F 4.0 °F 12.0 °F 74% 30.18 in 7.0 mi NNE 17.3 mph - N/A   Mostly Cloudy
11:41 AM 19.0 °F 4.0 °F 12.0 °F 74% 30.13 in 7.0 mi North 17.3 mph - N/A   Overcast
11:53 AM 19.0 °F 3.2 °F 12.0 °F 74% 30.17 in 7.0 mi North 19.6 mph - 0.00 in Snow Light Snow
12:53 PM 19.9 °F 3.5 °F 12.0 °F 71% 30.17 in 6.0 mi North 21.9 mph - 0.00 in Snow Light Snow
1:53 PM 19.0 °F 0.6 °F 10.9 °F 71% 30.20 in 6.0 mi North 27.6 mph - 0.00 in Snow Light Snow
2:53 PM 17.1 °F -1.7 °F 9.0 °F 71% 30.22 in 7.0 mi North 26.5 mph - 0.00 in Snow Light Snow
3:16 PM 15.1 °F -4.4 °F 9.0 °F 77% 30.19 in 2.5 mi North 26.5 mph - 0.00 in Snow Light Snow
3:23 PM 15.1 °F -3.7 °F 10.0 °F 80% 30.19 in 0.8 mi NNW 24.2 mph - 0.00 in Snow Light Snow
3:27 PM 15.1 °F -2.9 °F 10.0 °F 80% 30.20 in 0.5 mi North 21.9 mph - 0.00 in Snow Snow
3:53 PM 14.0 °F -4.3 °F 9.0 °F 80% 30.28 in 0.5 mi NNW 21.9 mph - 0.00 in Snow Snow
4:09 PM 12.9 °F -6.5 °F 8.1 °F 81% 30.23 in 0.2 mi North 24.2 mph - 0.00 in Snow Heavy Snow
4:42 PM 12.9 °F -6.1 °F 8.1 °F 81% 30.25 in 0.5 mi North 23.0 mph - 0.00 in Snow Snow
4:49 PM 12.2 °F -7.5 °F 8.6 °F 85% 30.25 in 0.5 mi North 24.2 mph - 0.00 in Snow Snow
4:53 PM 12.9 °F -5.7 °F 8.1 °F 81% 30.31 in 0.5 mi North 21.9 mph - 0.00 in Snow Snow
5:53 PM 12.9 °F -4.4 °F 9.0 °F 84% 30.36 in 0.8 mi NNW 18.4 mph - 0.00 in Snow Light Snow
6:02 PM 12.9 °F -4.9 °F 9.0 °F 84% 30.30 in 0.5 mi NNW 19.6 mph - 0.00 in Fog , Snow Snow
6:16 PM 12.9 °F -3.9 °F 9.0 °F 84% 30.31 in 1.0 mi NNW 17.3 mph - 0.00 in Snow Light Snow
6:30 PM 12.9 °F -4.4 °F 9.0 °F 84% 30.32 in 1.8 mi NNW 18.4 mph - 0.00 in Snow Light Snow
6:53 PM 14.0 °F -3.0 °F 9.0 °F 80% 30.39 in 1.8 mi NNW 18.4 mph - 0.00 in Snow Light Snow
7:01 PM 14.0 °F -3.0 °F 9.0 °F 80% 30.34 in 2.5 mi NNW 18.4 mph - 0.00 in Snow Light Snow
7:08 PM 14.0 °F -2.5 °F 9.0 °F 80% 30.34 in 4.0 mi NNW 17.3 mph - 0.00 in Snow Light Snow
7:53 PM 15.1 °F -2.0 °F 8.1 °F 74% 30.43 in 9.0 mi NNW 19.6 mph - 0.00 in Snow Light Snow
8:53 PM 12.9 °F -4.4 °F 7.0 °F 77% 30.46 in 9.0 mi NNW 18.4 mph - 0.00 in Snow Light Snow
9:53 PM 12.0 °F -4.5 °F 5.0 °F 73% 30.47 in 10.0 mi NNW 16.1 mph - 0.00 in   Clear
10:53 PM 10.0 °F -5.2 °F 3.9 °F 76% 30.48 in 10.0 mi NW 12.7 mph - N/A   Clear
11:53 PM 8.1 °F -7.0 °F 1.9 °F 76% 30.48 in 10.0 mi NW 11.5 mph - N/A   Clear